Location: Bouchavesnes-Bergen
(49.9859°N, 2.9203°E)
Time: 04:07:31
(UTC+00:00)

Envisat - Pass Details

Date: 11 February 2023
Orbit: 763 x 765 km, 98.2° (Epoch: 30 March)

Event Time Altitude Azimuth Distance (km) Brightness Sun altitude
Rises 04:01:58 0° 14° (NNE) 3,246 6.6 -30.0°
Reaches altitude 10° 04:04:17 10° 15° (NNE) 2,315 5.8 -29.6°
Enters shadow 04:08:22 58° 24° (NNE) 895 3.4 -29.0°
